Regional Weather Roundup
Issued by NWS Sterling, VA

Home | Current Version | Previous Version | Text Only | Print | Product List | Glossary Off
Versions: 1 2 3 4 5 6 7 8 9 10 11 12 13 14 15 16 17 18 19 20 21 22 23 24 25 26 27

000
ASUS41 KLWX 251111
RWRLWX

REGIONAL WEATHER ROUNDUP
NATIONAL WEATHER SERVICE BALTIMORE MD/WASHINGTON DC
700 AM EDT TUE JUL 25 2017

Note: "FAIR" indicates few or no clouds below 12,000 feet
with no significant weather and/or obstructions to visibility.
 TC=TEMPERATURE CELSIUS

 * =Non NWS site. Station does not report precipitation (e.g. rain,
    snow, etc.), thunder, or fog.

DCZ001-MDZ009-015-VAZ040>042-051-053>054-251200-
WASHINGTON METRO

CITY           SKY/WX    TMP DP  RH WIND       PRES   REMARKS
WASHINGTON NAT CLOUDY    71  57  61 NW9       30.05R
DULLES         CLOUDY    67  56  67 NW9       30.05R
ANDREWS AFB    CLOUDY    70  56  60 NW12      30.04R
FT BELVOIR     PTCLDY    70  58  65 CALM      30.05R
QUANTICO       MOCLDY    71  59  65 N8        30.06R
COLLEGE PARK*  CLOUDY    69  56  63 NW7       30.04R
LEESBURG*      CLEAR     68  61  77 NW5       30.07R
MANASSAS*      CLOUDY    68  58  70 N6        30.06R
GAITHERSBURG*  CLEAR     64  57  78 NW7       30.06R

$$

MDZ006>007-011-014-251200-
BALTIMORE METRO

CITY           SKY/WX    TMP DP  RH WIND       PRES   REMARKS
BWI AIRPORT    CLOUDY    65  60  84 W7        30.03R
MD SCIENCE CTR   N/A     72  58  61 MISG      30.03R
MARTIN STATE   PTCLDY    66  64  94 NW7       30.03R
ANNAPOLIS      PTCLDY    72  63  73 NW8       30.02R
FORT MEADE*    CLOUDY    61  59  94 CALM      30.06R

$$

MDZ012-015-019>023-251200-
MARYLAND EASTERN SHORE

CITY           SKY/WX    TMP DP  RH WIND       PRES   REMARKS
OCEAN CITY     CLOUDY    71  71 100 NW8       29.99R FOG
SALISBURY      PTSUNNY   72  72 100 NW7       29.99R FOG
BAY BRIDGE AP* MOCLDY    72  61  68 NW13G20   30.02R
CAMBRIDGE*     SUNNY     75  63  64 NW6       30.00R
EASTON*        MOSUNNY   70  64  83 CALM      30.05R

$$

MDZ017>025-251200-
SOUTHERN MARYLAND

CITY           SKY/WX    TMP DP  RH WIND       PRES   REMARKS
PATUXENT RIVER CLOUDY    73  61  65 N15       30.02R
ST INIGOES     PTCLDY    75  67  76 VRB3      30.01R
LEONARDTOWN*   MOCLDY    72  61  68 NW3       30.04R

$$

MDZ003>005-251200-
NORTH CENTRAL MARYLAND

CITY           SKY/WX    TMP DP  RH WIND       PRES   REMARKS
FREDERICK*     CLEAR     68  55  64 W7        30.07R
HAGERSTOWN APT CLEAR     67  56  67 CALM      30.07R
WESTMINSTER*   CLEAR     66  57  72 W5        30.05R

$$

MDZ501>502-251200-
WESTERN MARYLAND

CITY           SKY/WX    TMP DP  RH WIND       PRES   REMARKS
OAKLAND*       CLEAR     52  52 100 NW6       30.12R
CUMBERLAND*    PTCLDY    61  57  88 CALM      30.14R

$$

VAZ025>031-251200-
SHENANDOAH VALLEY

CITY           SKY/WX    TMP DP  RH WIND       PRES   REMARKS
WINCHESTER*    CLEAR     63  54  72 NW5       30.08S
FRONT ROYAL*   CLEAR     63  57  82 CALM      30.08R
LURAY*         CLEAR     64  61  88 N3        30.08R
NEW MARKET*    CLEAR     63  59  88 NE3       30.08R
STAUNTON*      PTCLDY    63  61  92 CALM      30.10R
WAYNESBORO*    MOCLDY    66  63  89 NW6       30.09R

$$

WVZ021-048>050-054>055-251200-
EASTERN WEST VIRGINIA PANHANDLE

CITY           SKY/WX    TMP DP  RH WIND       PRES   REMARKS
MARTINSBURG    CLEAR     65  55  70 SW5       30.06R
PETERSBURG*    PTCLDY    64  56  77 N5        30.12R

$$

VAZ036>039-050-251200-
CENTRAL FOOTHILLS

CITY           SKY/WX    TMP DP  RH WIND       PRES   REMARKS
CHARLOTTESVILL CLOUDY    71  65  81 E5        30.05R
CULPEPER*      PTCLDY    66  60  81 N5        30.07R
ORANGE*        PTCLDY    66  59  77 CALM      30.05R
GORDONSVILLE*  PTCLDY    67  66  94 CALM      30.05R
WARRENTON*     CLOUDY    68  56  66 N5        30.06R

$$

VAZ055>057-251200-
NORTH AND CENTRAL PIEDMONT

CITY           SKY/WX    TMP DP  RH WIND       PRES   REMARKS
FREDERICKSBRG* MOCLDY    71  60  67 MISG      30.05R
STAFFORD*      PTCLDY    68  59  71 CALM      30.09R

$$

NCZ024-NYZ072-PAZ021-071-VAZ022-071-251200-
OTHER REGIONAL OBSERVATIONS

CITY           SKY/WX    TMP DP  RH WIND       PRES   REMARKS
NEW YORK CITY  CLOUDY    64  59  83 VRB3      30.05R
PHILADELPHIA   LGT RAIN  67  64  90 NE6       30.01R
PITTSBURGH     CLOUDY    62  58  86 W5        30.13R
ROANOKE        PTCLDY    70  65  84 CALM      30.11R
RICHMOND       MOCLDY    73  67  81 N9        30.03R
RALEIGH        MOCLDY    75  74  96 CALM      30.04R FOG

$$

ANZ530>537-251200-
MARINE OBSERVATIONS

STATION/POSITION TIME  TEMP    WIND        PRES
                       AIR SEA DIR/SP/G
                 (UTC) (F)     (DEG/KT/KT) (MB)
THOMAS PT LIGHT  1100   71 82  300/ 12/ 15   N/A
BALT KEY BRIDGE  1048   71     300/ 15/ 18 1016.1R
COVE POINT       1048   74     350/ 21/ 24 1016.9R
LEWISETTA        1048   76 84   10/  8/ 12 1016.3R
SOLOMONS ISLAND  1048   74 83  340/ 12/ 17   N/A
PINEY POINT      1042           20/ 10/ 11   N/A

$$





USA.gov is the U.S. government's official web portal to all federal, state and local government web resources and services.